Monroe, MI

4:24 AM EST on February 11, 2016 (GMT -0500)
Custer

Weather History for KTTF - April, 2014

Change the Weather History Date:

Tuesday, April 1, 2014

  Actual Average Record
Temperature  
Mean Temperature 50 °F -  
Max Temperature 62 °F 52 °F 80 °F (1943)
Min Temperature 39 °F 35 °F 19 °F (1954)
Degree Days  
Heating Degree Days 14    
Moisture  
Dew Point 34 °F    
Average Humidity 55    
Maximum Humidity 71    
Minimum Humidity 41    
Precipitation  
Precipitation 0.00 in - - ()
Sea Level Pressure  
Sea Level Pressure 29.87 in    
Wind  
Wind Speed 11 mph (SW)    
Max Wind Speed 33 mph    
Max Gust Speed 41 mph    
Visibility 10 miles    
Events Rain    
Averages and records for this station are not official NWS values.
T = Trace of Precipitation, MM = Missing Value Source: NWS Daily Summary

Daily Weather History Graph

Daily Weather History Graph

Search for Another Location

Airport or City:

Trip Planner

Search our weather history database for the weather conditions in past years. The results will help you decide how hot, cold, wet, or windy it might be!

Date:

Astronomy

Apr. 01, 2014 Rise Set
Actual Time 7:16 AM EDT 7:59 PM EDT
Civil Twilight 6:48 AM EDT 8:27 PM EDT
Nautical Twilight 6:15 AM EDT 9:00 PM EDT
Astronomical Twilight 5:40 AM EDT 9:35 PM EDT
Moon 8:16 AM EDT (4/1) 10:23 PM EDT (4/1)
Length of Visible Light 13h 39m
Length of Day
12h 42m
Waxing Crescent, 4% of the Moon is Illuminated
Apr 1
Waxing Crescent
Apr 7
First Quarter
Apr 15
Full
Apr 22
Last Quarter
Apr 29
New

Hourly Weather History & Observations

Time (EDT) Temp. Windchill Dew Point Humidity Pressure Visibility Wind Dir Wind Speed Gust Speed Precip Events Conditions
12:16 AM 39.2 °F 33.6 °F 28.4 °F 65% 29.98 in 10.0 mi ESE 8.1 mph - N/A   Clear
12:36 AM 39.2 °F 33.0 °F 28.4 °F 65% 29.97 in 10.0 mi ESE 9.2 mph - N/A   Clear
12:56 AM 39.2 °F 34.2 °F 28.4 °F 65% 29.96 in 10.0 mi East 6.9 mph - N/A   Clear
1:16 AM 39.2 °F - 30.2 °F 70% 29.97 in 10.0 mi Calm Calm - N/A   Mostly Cloudy
1:36 AM 39.2 °F - 30.2 °F 70% 29.97 in 10.0 mi Calm Calm - N/A   Overcast
1:56 AM 41.0 °F - 30.2 °F 65% 29.96 in 10.0 mi Calm Calm - N/A   Mostly Cloudy
2:17 AM 41.0 °F - 30.2 °F 65% 29.96 in 10.0 mi Calm Calm - N/A   Mostly Cloudy
2:32 AM 41.0 °F - 30.2 °F 65% 29.95 in 10.0 mi Calm Calm - N/A   Mostly Cloudy
2:52 AM 41.0 °F - 30.2 °F 65% 29.94 in 10.0 mi Calm Calm - N/A   Mostly Cloudy
3:12 AM 42.8 °F - 30.2 °F 61% 29.95 in 10.0 mi Calm Calm - N/A   Overcast
3:32 AM 42.8 °F - 30.2 °F 61% 29.93 in 10.0 mi Calm Calm - N/A   Mostly Cloudy
3:52 AM 42.8 °F 38.6 °F 30.2 °F 61% 29.91 in 10.0 mi ESE 6.9 mph - N/A   Mostly Cloudy
4:12 AM 44.6 °F - 30.2 °F 57% 29.91 in 10.0 mi Calm Calm - N/A   Mostly Cloudy
4:32 AM 44.6 °F - 30.2 °F 57% 29.92 in 10.0 mi Calm Calm - N/A   Overcast
4:52 AM 44.6 °F - 30.2 °F 57% 29.92 in 10.0 mi Calm Calm - N/A   Overcast
5:12 AM 46.4 °F 42.9 °F 30.2 °F 53% 29.91 in 10.0 mi South 6.9 mph - N/A   Mostly Cloudy
5:33 AM 46.4 °F - 32.0 °F 57% 29.91 in 10.0 mi Calm Calm - N/A Rain Light Rain
5:53 AM 46.4 °F 42.9 °F 35.6 °F 66% 29.89 in 10.0 mi SSE 6.9 mph - N/A Rain Light Rain
6:13 AM 46.4 °F 44.3 °F 35.6 °F 66% 29.87 in 10.0 mi SSE 4.6 mph - N/A   Overcast
6:33 AM 48.2 °F - 35.6 °F 62% 29.85 in 10.0 mi Calm Calm - N/A   Overcast
6:53 AM 48.2 °F - 37.4 °F 66% 29.84 in 10.0 mi SSE 10.4 mph - N/A   Overcast
7:13 AM 48.2 °F - 37.4 °F 66% 29.83 in 10.0 mi SSE 10.4 mph - N/A   Overcast
7:33 AM 48.2 °F - 37.4 °F 66% 29.82 in 10.0 mi SSE 9.2 mph - N/A   Overcast
7:53 AM 46.4 °F 40.7 °F 37.4 °F 71% 29.81 in 10.0 mi SSE 12.7 mph 19.6 mph N/A   Overcast
8:13 AM 46.4 °F 41.1 °F 35.6 °F 66% 29.81 in 10.0 mi SSE 11.5 mph - N/A   Overcast
8:33 AM 46.4 °F 42.9 °F 35.6 °F 66% 29.81 in 10.0 mi South 6.9 mph - N/A   Overcast
8:54 AM 48.2 °F - 35.6 °F 62% 29.80 in 10.0 mi SSE 8.1 mph - N/A   Overcast
9:14 AM 50.0 °F - 37.4 °F 62% 29.79 in 10.0 mi South 12.7 mph - N/A   Mostly Cloudy
9:34 AM 53.6 °F - 37.4 °F 54% 29.79 in 10.0 mi South 12.7 mph 19.6 mph N/A   Mostly Cloudy
9:54 AM 55.4 °F - 37.4 °F 51% 29.78 in 10.0 mi South 15.0 mph - N/A   Overcast
10:14 AM 57.2 °F - 37.4 °F 48% 29.78 in 10.0 mi South 12.7 mph - N/A   Overcast
10:34 AM 57.2 °F - 39.2 °F 51% 29.77 in 10.0 mi South 13.8 mph 23.0 mph N/A   Overcast
10:54 AM 60.8 °F - 39.2 °F 45% 29.76 in 10.0 mi SW 16.1 mph 25.3 mph N/A   Scattered Clouds
11:14 AM 62.6 °F - 42.8 °F 48% 29.75 in 10.0 mi SW 15.0 mph 26.5 mph N/A   Clear
11:34 AM 60.8 °F - 41.0 °F 48% 29.75 in 10.0 mi SW 26.5 mph 38.0 mph N/A   Scattered Clouds
11:55 AM 60.8 °F - 39.2 °F 45% 29.75 in 10.0 mi WSW 26.5 mph 38.0 mph N/A   Scattered Clouds
12:15 PM 60.8 °F - 41.0 °F 48% 29.75 in 10.0 mi SW 23.0 mph 38.0 mph N/A   Mostly Cloudy
12:35 PM 60.8 °F - 42.8 °F 52% 29.75 in 10.0 mi WSW 27.6 mph 36.8 mph N/A   Mostly Cloudy
12:55 PM 60.8 °F - 39.2 °F 45% 29.76 in 10.0 mi WSW 26.5 mph 40.3 mph N/A   Scattered Clouds
1:15 PM 57.2 °F - 35.6 °F 44% 29.76 in 10.0 mi SW 33.4 mph 39.1 mph N/A   Scattered Clouds
1:35 PM 57.2 °F - 35.6 °F 44% 29.76 in 10.0 mi WSW 25.3 mph 39.1 mph N/A   Scattered Clouds
1:55 PM 57.2 °F - 33.8 °F 41% 29.77 in 10.0 mi WSW 24.2 mph 35.7 mph N/A   Clear
2:15 PM 57.2 °F - 35.6 °F 44% 29.78 in 10.0 mi WSW 29.9 mph 38.0 mph N/A   Scattered Clouds
2:35 PM 57.2 °F - 35.6 °F 44% 29.78 in 10.0 mi WSW 24.2 mph 40.3 mph N/A   Scattered Clouds
2:56 PM 55.4 °F - 35.6 °F 47% 29.79 in 10.0 mi WSW 26.5 mph 40.3 mph N/A   Scattered Clouds
3:16 PM 55.4 °F - 35.6 °F 47% 29.79 in 10.0 mi WSW 26.5 mph 40.3 mph N/A   Clear
3:36 PM 55.4 °F - 35.6 °F 47% 29.78 in 10.0 mi WSW 31.1 mph 38.0 mph N/A   Scattered Clouds
3:56 PM 57.2 °F - 35.6 °F 44% 29.78 in 10.0 mi West 25.3 mph 34.5 mph N/A   Clear
4:16 PM 57.2 °F - 33.8 °F 41% 29.79 in 10.0 mi WSW 31.1 mph 38.0 mph N/A   Clear
4:36 PM 55.4 °F - 35.6 °F 47% 29.80 in 10.0 mi WSW 28.8 mph 35.7 mph N/A   Clear
4:56 PM 55.4 °F - 35.6 °F 47% 29.81 in 10.0 mi West 29.9 mph 39.1 mph N/A   Clear
5:16 PM 53.6 °F - 33.8 °F 47% 29.82 in 10.0 mi WSW 25.3 mph 39.1 mph N/A   Clear
5:36 PM 51.8 °F - 32.0 °F 47% 29.83 in 10.0 mi WSW 26.5 mph 36.8 mph N/A   Clear
5:57 PM 51.8 °F - 32.0 °F 47% 29.84 in 10.0 mi West 24.2 mph 41.4 mph N/A   Scattered Clouds
6:12 PM 51.8 °F - 32.0 °F 47% 29.85 in 10.0 mi West 25.3 mph 34.5 mph N/A   Clear
6:32 PM 51.8 °F - 32.0 °F 47% 29.86 in 10.0 mi WSW 24.2 mph 33.4 mph N/A   Clear
6:52 PM 50.0 °F - 32.0 °F 50% 29.87 in 10.0 mi West 15.0 mph 27.6 mph N/A   Clear
7:12 PM 50.0 °F - 32.0 °F 50% 29.88 in 10.0 mi West 18.4 mph 26.5 mph N/A   Clear
7:32 PM 48.2 °F - 32.0 °F 54% 29.89 in 10.0 mi West 11.5 mph 17.3 mph N/A   Clear
7:52 PM 48.2 °F - 32.0 °F 54% 29.90 in 10.0 mi West 13.8 mph 24.2 mph N/A   Clear
8:12 PM 48.2 °F - 30.2 °F 50% 29.91 in 10.0 mi West 16.1 mph 20.7 mph N/A   Clear
8:33 PM 48.2 °F - 32.0 °F 54% 29.92 in 10.0 mi West 15.0 mph 20.7 mph N/A   Clear
8:53 PM 46.4 °F 41.1 °F 32.0 °F 57% 29.93 in 10.0 mi WSW 11.5 mph - N/A   Clear
9:13 PM 46.4 °F 40.4 °F 32.0 °F 57% 29.94 in 10.0 mi West 13.8 mph 19.6 mph N/A   Clear
9:33 PM 46.4 °F 40.4 °F 30.2 °F 53% 29.95 in 10.0 mi West 13.8 mph 21.9 mph N/A   Clear
9:53 PM 44.6 °F 39.7 °F 32.0 °F 61% 29.96 in 10.0 mi West 9.2 mph - N/A   Clear
10:13 PM 42.8 °F - 32.0 °F 66% 29.98 in 10.0 mi Calm Calm - N/A   Clear
10:33 PM 42.8 °F 36.6 °F 30.2 °F 61% 29.99 in 10.0 mi WNW 11.5 mph 17.3 mph N/A   Clear
10:53 PM 42.8 °F 36.6 °F 30.2 °F 61% 30.00 in 10.0 mi WNW 11.5 mph - N/A   Clear
11:13 PM 41.0 °F 34.7 °F 28.4 °F 61% 30.00 in 10.0 mi WNW 10.4 mph - N/A   Clear
11:34 PM 41.0 °F 34.7 °F 28.4 °F 61% 30.02 in 10.0 mi West 10.4 mph - N/A   Clear
11:54 PM 41.0 °F 34.7 °F 28.4 °F 61% 30.03 in 10.0 mi West 10.4 mph - N/A   Clear